Location: Madrid
(40.4167°N, 3.7036°W)
Time: 11:18:36
(UTC+00:00)

ISS - Pass Details

Date: 05 March 2026
Orbit: 416 x 427 km, 51.6° (Epoch: 5 March)

Event Time Altitude Azimuth Distance (km) Brightness Sun altitude
Exits shadow 05:05:28 66° 201° (SSW) 455 -3.8 -19.3°
Drops below altitude 10° 05:08:39 10° 137° (SE) 1,483 -0.5 -18.7°
Sets 05:10:44 0° 134° (SE) 2,341 0.6 -18.3°
